OCN9ZF EDDF-LGIR

Flight info

Callsign OCN9ZF
Flight time N/A
Altitude 37000
Route CINDY2D CINDY Z74 LAMPU DCT NOMBO Y161 MAH DCT LATLO DCT OBEDI DCT TEBLI DCT TIVNU DCT RETRA DCT PINDO DCT PIKOS DCT KEA UL607 GIVIS/N0353F230 T514 XAVIS
Aircraft A320/M-SDE2E3FGIJ1LORWXYZ/HB1

Departure

Time 2026-04-18 06:38
Airport Frankfurt Main Airport (EDDF)

Arrival

Time N/A
Airport Heraklion International Nikos Kazantzakis Airport (LGIR)
Time Latitude Longitude Altitude Speed Heading
2026-04-18 06:09 50.04390 8.56168 362 ft 0 kts 155°
2026-04-18 06:27 50.04407 8.56155 363 ft 4 kts 153°
2026-04-18 06:27 50.04431 8.56138 358 ft 4 kts 169°
2026-04-18 06:28 50.04451 8.56143 358 ft 4 kts 221°
2026-04-18 06:28 50.04463 8.56163 364 ft 1 kts 250°
2026-04-18 06:28 50.04457 8.56135 363 ft 4 kts 249°
2026-04-18 06:28 50.04453 8.56118 361 ft 0 kts 249°
2026-04-18 06:31 50.04451 8.56110 357 ft 3 kts 249°
2026-04-18 06:31 50.04439 8.56061 361 ft 8 kts 249°
2026-04-18 06:31 50.04420 8.55983 358 ft 7 kts 247°
2026-04-18 06:31 50.04390 8.55933 358 ft 5 kts 208°
2026-04-18 06:32 50.04355 8.55927 360 ft 5 kts 172°
2026-04-18 06:32 50.04297 8.55956 362 ft 12 kts 160°
2026-04-18 06:32 50.04231 8.55905 358 ft 12 kts 246°
2026-04-18 06:32 50.04201 8.55784 358 ft 13 kts 249°
2026-04-18 06:33 50.04164 8.55629 360 ft 19 kts 249°
2026-04-18 06:33 50.04113 8.55414 357 ft 22 kts 249°
2026-04-18 06:33 50.04057 8.55183 355 ft 23 kts 249°
2026-04-18 06:33 50.04040 8.55111 354 ft 0 kts 249°
2026-04-18 06:34 50.04032 8.55078 357 ft 7 kts 249°
2026-04-18 06:34 50.04006 8.54970 360 ft 14 kts 250°
2026-04-18 06:34 50.03962 8.54782 354 ft 23 kts 250°
2026-04-18 06:34 50.03902 8.54533 354 ft 26 kts 249°
2026-04-18 06:35 50.03817 8.54275 348 ft 28 kts 238°
2026-04-18 06:35 50.03743 8.53989 352 ft 29 kts 249°
2026-04-18 06:35 50.03671 8.53690 347 ft 29 kts 249°
2026-04-18 06:35 50.03603 8.53414 336 ft 28 kts 249°
2026-04-18 06:36 50.03538 8.53141 338 ft 23 kts 249°
2026-04-18 06:36 50.03481 8.52909 336 ft 23 kts 247°
2026-04-18 06:36 50.03427 8.52703 333 ft 9 kts 249°
2026-04-18 06:36 50.03403 8.52615 332 ft 8 kts 234°
2026-04-18 06:37 50.03356 8.52595 335 ft 7 kts 182°
2026-04-18 06:37 50.03273 8.52596 332 ft 34 kts 179°
2026-04-18 06:37 50.02776 8.52603 335 ft 105 kts 179°
2026-04-18 06:37 50.01850 8.52613 331 ft 158 kts 179°
2026-04-18 06:38 50.00667 8.52656 798 ft 168 kts 178°
2026-04-18 06:38 49.99509 8.52667 1584 ft 167 kts 180°
2026-04-18 06:38 49.98293 8.52663 2000 ft 188 kts 179°
2026-04-18 06:38 49.96959 8.53155 2302 ft 211 kts 150°
2026-04-18 06:39 49.95870 8.54796 2842 ft 227 kts 121°
2026-04-18 06:39 49.95093 8.56950 3705 ft 229 kts 120°
2026-04-18 06:39 49.94342 8.59152 4562 ft 234 kts 112°
2026-04-18 06:39 49.93990 8.61680 5186 ft 251 kts 95°
2026-04-18 06:40 49.93873 8.64506 5699 ft 270 kts 94°
2026-04-18 06:40 49.93570 8.67401 6501 ft 276 kts 112°
2026-04-18 06:40 49.92694 8.70066 7349 ft 278 kts 121°
2026-04-18 06:40 49.91735 8.72693 8205 ft 282 kts 121°
2026-04-18 06:41 49.90752 8.75354 9056 ft 286 kts 121°
2026-04-18 06:41 49.89757 8.78041 9918 ft 290 kts 121°
2026-04-18 06:41 49.88739 8.80793 10535 ft 302 kts 121°
2026-04-18 06:41 49.87657 8.83725 10796 ft 325 kts 121°
2026-04-18 06:42 49.86514 8.86824 11356 ft 336 kts 121°
2026-04-18 06:42 49.85345 8.89995 12046 ft 342 kts 121°
2026-04-18 06:42 49.84152 8.93232 12721 ft 349 kts 121°
2026-04-18 06:42 49.82939 8.96524 13404 ft 355 kts 121°
2026-04-18 06:43 49.81706 8.99861 14072 ft 361 kts 121°
2026-04-18 06:43 49.80450 9.03252 14680 ft 365 kts 121°
2026-04-18 06:43 49.79179 9.06681 15315 ft 369 kts 121°
2026-04-18 06:43 49.77895 9.10135 15975 ft 372 kts 121°
2026-04-18 06:44 49.76596 9.13618 16613 ft 375 kts 121°
2026-04-18 06:44 49.75281 9.17129 17239 ft 379 kts 122°
2026-04-18 06:44 49.73736 9.20436 17854 ft 382 kts 132°